Regional Weather Roundup
Issued by NWS

Home | Current Version | Previous Version | Graphics & Text | Print | Product List | Glossary On
Versions: 1 2 3 4 5 6 7 8 9 10 11 12 13 14 15 16 17 18 19 20 21 22 23 24 25 26 27 28 29 30 31 32 33 34 35 36 37 38 39 40 41 42 43 44 45 46 47 48 49 50
000
ASUS45 KBOU 200307
RWRCO

WEATHER ROUNDUP FOR COLORADO
NATIONAL WEATHER SERVICE DENVER/BOULDER CO
800 PM MST WED NOV 19 2014

NOTE: "FAIR" INDICATES FEW OR NO CLOUDS BELOW 12000 FEET WITH NO
SIGNIFICANT WEATHER AND/OR OBSTRUCTIONS TO VISIBILITY.

COZ001>005-013-030-031-200400-
...NORTHWEST COLORADO...

CITY           SKY/WX    TMP DP  RH WIND       PRES   REMARKS
CRAIG          CLEAR     25  15  66 E7        30.13R WCI  17
HAYDEN         CLEAR     28  12  50 CALM      30.12S
MEEKER         PTCLDY    30  18  60 E3        30.14R
MOUNT WERNER   NOT AVBL
STEAMBOAT SPGS CLEAR     29  15  53 CALM      30.13R
WALDEN         PTCLDY    28  10  47 S8G16     30.10S WCI  20
$$

COZ006>008-011-200400-
...WEST CENTRAL VALLEYS...

CITY           SKY/WX    TMP DP  RH WIND       PRES   REMARKS
GRAND JUNCTION PTCLDY    32  13  45 NE3       30.17R
MONTROSE       PTCLDY    32  16  51 SE8       30.19S WCI  25
EAGLE          PTCLDY    27  18  69 CALM      30.18S
RIFLE          CLEAR     27  18  69 S3        30.18R
DELTA          PTCLDY    34  15  46 N8        30.18R WCI  27
NUCLA          CLOUDY    34  21  60 E9        30.20S WCI  26
$$

COZ017>023-064>068-200400-
...SOUTHWEST COLORADO...

CITY           SKY/WX    TMP DP  RH WIND       PRES   REMARKS
DURANGO        PTCLDY    26  18  71 N3        30.18S
CORTEZ         CLEAR     26  18  71 E5        30.18S WCI  20
PAGOSA SPRINGS PTCLDY    27  16  63 CALM      30.20R
TELLURIDE      NOT AVBL
WOLF CREEK PAS PTCLDY    19   9  63 SW14      30.21F WCI   6
$$

COZ009-010-012-014-032>034-037-058>063-200400-
...CENTRAL COLORADO...

CITY           SKY/WX    TMP DP  RH WIND       PRES   REMARKS
ASPEN          PTCLDY    22  13  68 SW7       30.16S WCI  13
BUENA VISTA    PTCLDY    34   7  32 W15       30.09S WCI  24
COPPER MTN     CLEAR     19   3  49 W21G30    30.17R WCI   3
BERTHOUD PASS  FAIR      14  10  85 NW45G55   30.05F WCI -10
COTTONWOOD PAS PTCLDY    32  -8  18 NW9G18    30.10F WCI  24
GUNNISON       PTCLDY    14   7  73 CALM      30.22S
KREMMLING      PTCLDY    23  12  63 SE5       30.14S WCI  17
LEADVILLE      PTCLDY    16   0  49 N8        30.14R WCI   5
MONARCH PASS   PTCLDY    18   1  49 W41       30.24F WCI  -5
SALIDA         PTCLDY    40  -1  18 W13G20    30.14F
SUNLIGHT       PTCLDY    23  10  58 SW3       30.20S
WILKERSON PASS MOCLDY    25  -8  24 N9        30.15R WCI  15
$$

COZ069>075-200400-
...SAN LUIS VALLEY/SANGRE DE CRISTO MOUNTAINS...

CITY           SKY/WX    TMP DP  RH WIND       PRES   REMARKS
ALAMOSA        PTCLDY    17  10  74 CALM      30.15R
LA VETA PASS   NOT AVBL
SAGUACHE       PTCLDY    21  10  63 NW8       30.16S WCI  12
$$

COZ035-036-038>040-200400-
...NORTHERN COLORADO FRONT RANGE...

CITY           SKY/WX    TMP DP  RH WIND       PRES   REMARKS
DENVER INTL AP PTCLDY    35  22  58 CALM      30.00S
DMNS CITY PARK   N/A     30  22  73 NE6       30.00S WCI  24
AURORA         PTCLDY    31  23  71 SE8       30.01S WCI  24
FRONT RANGE AP NOT AVBL
ERIE MUNI ARPT PTCLDY    25  21  85 CALM      30.02R
BOULDER MUN AP PTCLDY    32  23  69 CALM      30.01R
CENTENNIAL     PTCLDY    30  22  72 S7        30.00S WCI  23
BROOMFIELD     MOCLDY    32  21  64 N5        30.01R WCI  27
FORT COLLINS   CLEAR     30  19  64 N7        30.02S WCI  23
LONGMONT       CLEAR     27  20  75 SW6       30.03S WCI  20
$$

COZ041-046-047-076>085-087-088-200400-
...PIKES PEAK/PALMER DIVIDE AND SOUTHERN FOOTHILLS...

CITY           SKY/WX    TMP DP  RH WIND       PRES   REMARKS
COLO. SPRINGS  MOCLDY    26  17  68 N9        30.04F WCI  17
A. F. ACADEMY  PTCLDY    26  13  59 NE5       30.03F WCI  20
ELLICOTT       PTCLDY    25  19  78 NE8       30.02F WCI  16
FALCON         NOT AVBL
FORT CARSON    PTCLDY    30  20  67 NW8       30.02F WCI  22
LIMON          CLEAR     17  14  88 N6        30.04S WCI   9
MONUMENT HILL  PTCLDY    28  18  64 S7        30.02S WCI  21
TRINIDAD       MOCLDY    35  18  49 W9        30.02S WCI  28
$$

COZ042>045-048>051-090-091-200400-
...NORTHEAST COLORADO...

CITY           SKY/WX    TMP DP  RH WIND       PRES   REMARKS
GREELEY ARPT   CLEAR     25  12  58 N5        30.02S WCI  19
AKRON          CLEAR     27  15  61 SE5       30.02S WCI  22
BURLINGTON     CLEAR     31  17  56 S14       30.04S WCI  21
WRAY           CLEAR     29  16  57 CALM      30.05S
STERLING       CLEAR     27  19  74 N3        30.03R
HOLYOKE        CLEAR     25  14  63 CALM      30.05S
FORT MORGAN    CLEAR     27  15  62 E7        30.02R WCI  19
$$

COZ086-089-092>099-200400-
...SOUTHEAST COLORADO...

CITY           SKY/WX    TMP DP  RH WIND       PRES   REMARKS
PUEBLO         PTCLDY    31  25  78 W5        30.02S WCI  26
LA JUNTA       PTCLDY    30  24  78 E3        30.01R
LAMAR          CLEAR     28  24  85 NE7       30.01F WCI  21
SPRINGFIELD      N/A     33  22  63 S10       30.04S WCI  25
$$



USA.gov is the U.S. government's official web portal to all federal, state and local government web resources and services.